Regional Weather Roundup
Issued by NWS

Home | Current Version | Previous Version | Text Only | Print | Product List | Glossary On
Versions: 1 2 3 4 5 6 7 8 9 10 11 12 13 14 15 16 17 18 19 20 21 22 23 24 25 26 27 28 29 30 31 32 33 34 35 36 37 38 39 40 41 42 43 44 45 46 47 48 49 50
000
ASUS43 KMKX 272321
RWRWI

WISCONSIN REGIONAL WEATHER ROUNDUP
NATIONAL WEATHER SERVICE MILWAUKEE/SULLIVAN WI
500 PM CST THU NOV 27 2014

NOTE: "FAIR" INDICATES FEW OR NO CLOUDS BELOW 12,000 FEET WITH NO
SIGNIFICANT WEATHER AND/OR OBSTRUCTIONS TO VISIBILITY.

WIZ001-002-006>008-014>016-023>028-280000-
NORTHWEST WISCONSIN

CITY           SKY/WX    TMP DP  RH WIND       PRES   REMARKS
SUPERIOR ARPT  CLEAR      4  -4  69 S3        30.39F
ASHLAND        CLEAR      2  -2  83 SW3       30.39F
HAYWARD        CLEAR      2  -3  80 S3        30.35F
SIREN          CLEAR      5  -5  63 CALM      30.39S
CUMBERLAND     CLEAR      3  -6  66 CALM      30.36S
RICE LAKE      CLEAR      7  -5  57 CALM      30.39F
CHETEK         CLEAR      3  -6  66 CALM      30.38F
LADYSMITH      CLEAR      7  -2  66 CALM      30.37F
EAU CLAIRE     CLEAR      6  -5  60 CALM      30.39F
MENOMONIE      CLEAR      8  -4  57 W3        30.40F
NEW RICHMOND   CLEAR      6  -4  65 CALM      30.39F
OSCEOLA        CLEAR      7  -4  60 CALM      30.42F
$$

WIZ003>005-009-010-017-018-280000-
NORTH CENTRAL WISCONSIN

CITY           SKY/WX    TMP DP  RH WIND       PRES   REMARKS
MANITOWISH WTR CLEAR      3   0  85 CALM      30.29F
ARBOR VITAE    PTCLDY     5   2  85 CALM      30.29F
WOODRUFF       PTCLDY     5   2  85 CALM      30.29F
RHINELANDER    CLEAR      1  -4  79 W3        30.30S
EAGLE RIVER    CLOUDY     9   2  73 CALM      30.28S
LAND O LAKES   CLEAR      1  -3  85 CALM      30.28F
PHILLIPS       CLEAR      5  -2  73 CALM      30.31F
TOMAHAWK       CLEAR      2  -2  83 CALM      30.32F
MEDFORD        CLEAR      6  -3  68 W3        30.32F
MERRILL        CLEAR     10   0  65 CALM      30.33S
$$

WIZ029-030-035-036-043>047-280000-
CENTRAL WISCONSIN

CITY           SKY/WX    TMP DP  RH WIND       PRES   REMARKS
WAUSAU         CLEAR      8   0  69 W9        30.34S WCI  -5
MOSINEE        CLEAR      9   3  78 W7        30.36S WCI  -3
MARSHFIELD     CLEAR      3  -5  69 W3        30.35F
STEVENS POINT  CLEAR      8   0  70 W3        30.37S
WAUPACA        CLEAR     14   5  66 W6        30.39R WCI   5
WAUTOMA        CLEAR     10   2  70 NW6       30.40R WCI   0
WISC RAPIDS    CLEAR      8  -3  61 NW3       30.39F
CAMP DOUGLAS   CLEAR      7   1  78 W6        30.40F WCI  -4
$$

WIZ011>013-019>022-031-037>040-048>050-280000-
NORTHEAST WISCONSIN

CITY           SKY/WX    TMP DP  RH WIND       PRES   REMARKS
ANTIGO         CLEAR      3  -2  77 CALM      30.31S
SHAWANO        CLEAR     15   5  64 W3        30.37R
OCONTO         CLEAR      8   0  70 CALM      30.37S
STURGEON BAY   MOCLDY    16   1  53 NW9       30.35S WCI   4
GREEN BAY      CLEAR     12   3  67 W7        30.37R WCI   1
MANITOWOC      CLEAR     13   7  77 W3        30.38R
APPLETON       PTCLDY    12   3  67 MISG      30.37R
CLINTONVILLE   CLEAR     12   5  73 W6        30.37R WCI   3
OSHKOSH        CLEAR     12   4  70 MISG      30.38R
$$

WIZ032>034-041-042-053>061-280000-
SOUTHWEST WISCONSIN

CITY           SKY/WX    TMP DP  RH WIND       PRES   REMARKS
LA CROSSE      CLEAR      9  -2  61 N3        30.43F
SPARTA         CLEAR      8   1  73 CALM      30.42F
VIROQUA        CLEAR      5  -3  69 CALM      30.37S
BOSCOBEL       CLEAR     12  -3  51 NW3       30.44S
PRAIRIE DU CHI CLEAR     12  -2  52 NW3       30.44F
PLATTEVILLE    CLEAR     14   0  53 CALM      30.40F
$$

WIZ056-057-062-063-064-067-068-280000-
SOUTH CENTRAL WISCONSIN

CITY           SKY/WX    TMP DP  RH WIND       PRES   REMARKS
REEDSBURG      CLEAR     11   2  66 CALM      30.40S
BARABOO/DELLS  CLEAR     11   4  74 CALM      30.39S
LONE ROCK      CLEAR     16  -2  45 NW3       30.42F
MINERAL POINT  CLEAR     14   1  57 NW6       30.37F WCI   5
MADISON        PTCLDY    14   6  70 NW5       30.40R WCI   6
MIDDLETON      CLEAR     11   4  72 CALM      30.40S
WATERTOWN      CLOUDY    16  10  77 W3        30.39R
MONROE         CLEAR     18   9  68 W5        30.38R WCI  11
JANESVILLE     CLEAR     16   7  67 NW6       30.40R WCI   7
$$

WIZ051-052-058>065-066-070>072-280000-
SOUTHEAST WISCONSIN

CITY           SKY/WX    TMP DP  RH WIND       PRES   REMARKS
MILWAUKEE      PTCLDY    19   7  59 W8        30.39R WCI   9
WAUKESHA       MOCLDY    14   7  73 NW8       30.39R WCI   3
MILWAUKEE/TIMM MOCLDY    18   9  68 NW5       30.40R WCI  11
RACINE         PTCLDY    19   9  65 NW7       30.41R WCI  10
BURLINGTON     FLURRIES  16   9  74 NW10      30.40R WCI   4
KENOSHA        FLURRIES  19  11  70 NW10      30.40R WCI   7
FOND DU LAC    CLEAR     13   4  67 W6        30.38R WCI   4
SHEBOYGAN      CLEAR     13   5  70 NW3       30.37R
WEST BEND      MOCLDY    16   9  73 W3        30.37S
JUNEAU         CLEAR     12   7  79 CALM      30.39S
$$

LSZ147-162-280000-
LAKE SUPERIOR

STATION/POSITION TIME  TEMP    WIND        PRES    WAVE
                       AIR SEA DIR/SP/G            HT/PER
                 (UTC) (F)     (DEG/KT/KT) (MB)    (FT/S)
DEVILS ISLAND    2300   12     230/ 11/ 14 1030.2F
PORT WING        2200    8     190/  7/  9 1029.5F
SAXON HARBOR     2200   11     210/  2/  6 1029.1F
$$

LMZ867-665-643>646-280000-
LAKE MICHIGAN

STATION/POSITION TIME  TEMP    WIND        PRES    WAVE
                       AIR SEA DIR/SP/G            HT/PER
                 (UTC) (F)     (DEG/KT/KT) (MB)    (FT/S)
CHAMBERS ISLAND  2200   17     310/  8/ 13 1027.8R
N MID LAKE BUOY  2250   20 42  330/ 17/ 23 1027.8R   4/ 4
NORTHPORT PIER   2210   19     310/ 13/ 19 1027.1S
SISTER BAY       2128          330/ 18/ 23   N/A
ALGOMA LAKESHORE 2043          310/ 12/ 17   N/A
KEWAUNEE LAKESHO 2206   16     310/  1/  3 1026.9R
SHEBOYGAN LAKESH 2300   17 34  310/  6/  7 1030.2R
PORT WASHINGTON  2200   19     310/  6/ 11 1029.1R
MILWAUKEE LAKESH 2300   19     300/  8/ 12   N/A
S MID LAKE BUOY  2250   25 42  320/ 16/ 21 1028.9R   6/ 8
KENOSHA   LAKESH 2300   20     300/  8/ 15 1029.1R
$$

TC  - TEMPERATURE IN CELSIUS
VSB - VISIBILITY IN STATUTE MILES
WCI - WIND CHILL INDEX
HX  - HEAT INDEX




USA.gov is the U.S. government's official web portal to all federal, state and local government web resources and services.